Location: Janikowo
(52.7550°N, 18.1104°E)
Time: 17:23:03
(UTC+01:00)

ISS - Visible Passes

Search period start: 16 January 2019 00:00
Search period end: 26 January 2019 00:00
Orbit: 404 x 407 km, 51.6° (Epoch: 17 January)

Date Brightness Start Highest point End Pass type
(mag) Time Alt. Az. Time Alt. Az. Time Alt. Az.
23 Jan -1.3 18:37:22 10° S 18:38:06 13° S 18:38:06 13° S visible
24 Jan -1.5 17:46:37 10° SSE 17:48:00 12° SE 17:48:29 12° SE visible
24 Jan -0.8 19:20:45 10° SW 19:21:11 13° SW 19:21:11 13° SW visible
25 Jan -2.4 18:29:05 10° SW 18:31:29 28° S 18:31:29 28° S visible
